Weather History for Pavlodar, Kazakhstan

Change the Weather History Date:

Saturday, October 13, 2012

  Actual Average Record
Temperature  
Mean Temperature 40 °F -  
Max Temperature 52 °F - - ()
Min Temperature 28 °F - - ()
Degree Days  
Heating Degree Days 25    
Moisture  
Dew Point 21 °F    
Average Humidity 48    
Maximum Humidity 74    
Minimum Humidity 25    
Precipitation  
Precipitation 0.00 in - - ()
Sea Level Pressure  
Sea Level Pressure 30.42 in    
Wind  
Wind Speed 7 mph ()    
Max Wind Speed 11 mph    
Max Gust Speed -    
Visibility 8.4 miles    
Events      
T = Trace of Precipitation, MM = Missing Value Source: Averaged Metar Reports

Daily Weather History Graph

Daily Weather History Graph

Search for Another Location

Airport:

Trip Planner

Search our weather history database for the weather conditions in past years. The results will help you decide how hot, cold, wet, or windy it might be!

Date:

Astronomy

Oct. 13, 2012 Rise Set
Actual Time 7:13 AM ALMT 6:01 PM ALMT
Civil Twilight 6:39 AM ALMT 6:35 PM ALMT
Nautical Twilight 6:00 AM ALMT 7:14 PM ALMT
Astronomical Twilight 5:20 AM ALMT 7:54 PM ALMT
Moon 4:16 AM ALMT (10/13) 4:40 PM ALMT (10/13)
Length of Visible Light 11h 56m
Length of Day
10h 48m
Waning Crescent, 7% of the Moon is Illuminated
Oct 13
Waning Crescent
Oct 15
New
Oct 22
First Quarter
Oct 30
Full
Nov 7
Last Quarter

Hourly Weather History & Observations

Time (ALMT) Temp. Windchill Dew Point Humidity Pressure Visibility Wind Dir Wind Speed Gust Speed Precip Events Conditions
12:00 AM 37 °F - 22 °F 41% 30.41 in 12 mi East 4.5 mph - -   Clear
12:00 AM 35.6 °F 28.7 °F 17.6 °F 48% 30.39 in 6.2 mi East 8.9 mph - N/A   Unknown
1:00 AM 33.8 °F 26.5 °F 19.4 °F 56% 30.39 in 6.2 mi East 8.9 mph - N/A   Unknown
2:00 AM 33.8 °F 26.5 °F 19.4 °F 56% 30.39 in 6.2 mi East 8.9 mph - N/A   Unknown
3:00 AM 33 °F - 24 °F 57% 30.41 in 12 mi East 4.5 mph - -  
3:00 AM 32.0 °F 24.3 °F 21.2 °F 64% 30.39 in 6.2 mi East 8.9 mph - N/A   Unknown
4:00 AM 32.0 °F 24.3 °F 21.2 °F 64% 30.39 in 6.2 mi East 8.9 mph - N/A   Unknown
5:00 AM 30.2 °F 25.5 °F 21.2 °F 69% 30.39 in 6.2 mi ESE 4.5 mph - N/A   Unknown
6:00 AM 31 °F - 25 °F 71% 30.43 in 12 mi East 4.5 mph - -   Clear
6:00 AM 30.2 °F 20.9 °F 21.2 °F 69% 30.39 in 6.2 mi East 11.2 mph - N/A   Unknown
7:00 AM 28.4 °F 19.9 °F 21.2 °F 74% 30.39 in 6.2 mi East 8.9 mph - N/A   Unknown
8:00 AM 33.8 °F 26.5 °F 23.0 °F 65% 30.42 in 6.2 mi East 8.9 mph - N/A   Unknown
9:00 AM 37 °F - 26 °F 53% 30.45 in 12 mi East 4.5 mph - -   Scattered Clouds
9:00 AM 37.4 °F 30.9 °F 23.0 °F 56% 30.42 in 6.2 mi ESE 8.9 mph - N/A   Unknown
10:00 AM 42.8 °F 37.6 °F 23.0 °F 46% 30.42 in - SE 8.9 mph - N/A   Clear
11:00 AM 46.4 °F 41.2 °F 19.4 °F 34% 30.42 in - East 11.2 mph - N/A   Clear
12:00 PM 47 °F - 24 °F 28% 30.45 in 31 mi SE 6.7 mph - -   Clear
12:00 PM 48.2 °F - 21.2 °F 34% 30.42 in - ESE 11.2 mph - N/A   Clear
1:00 PM 48.2 °F - 21.2 °F 34% 30.42 in - ESE 8.9 mph - N/A   Clear
2:00 PM 50.0 °F - 21.2 °F 32% 30.42 in - East 8.9 mph - N/A   Clear
3:00 PM 50 °F - 25 °F 25% 30.42 in 31 mi East 4.5 mph - -  
3:00 PM 51.8 °F - 23.0 °F 33% 30.39 in - East 11.2 mph - N/A   Clear
4:00 PM 50.0 °F - 23.0 °F 35% 30.42 in - ENE 11.2 mph - N/A   Clear
5:00 PM 48.2 °F - 15.8 °F 27% 30.42 in - East 11.2 mph - N/A   Clear
6:00 PM 46 °F - 27 °F 35% 30.43 in 12 mi ENE 4.5 mph - -  
6:00 PM 42.8 °F 37.6 °F 15.8 °F 34% 30.42 in - ENE 8.9 mph - N/A   Clear
7:00 PM 33.8 °F 25.4 °F 17.6 °F 52% 30.42 in - ENE 11.2 mph - N/A   Clear
8:00 PM 35.6 °F 27.7 °F 17.6 °F 48% 30.42 in - ENE 11.2 mph - N/A   Clear
9:00 PM 35 °F - 22 °F 46% 30.47 in 12 mi ENE 2.2 mph - -  
9:00 PM 33.8 °F 25.4 °F 19.4 °F 56% 30.45 in - ENE 11.2 mph - N/A   Clear
10:00 PM 35.6 °F 27.7 °F 19.4 °F 52% 30.45 in - East 11.2 mph - N/A   Clear
11:00 PM 33.8 °F 26.5 °F 17.6 °F 52% 30.45 in - East 8.9 mph - N/A   Clear